Torna al catalogo

STARLINK-33613

AttivoComunicazioniVLEO
NORAD 63286·PAYLOAD·🇺🇸 United States

Lanciato Mar 15, 2025 da Cape Canaveral Space Force Station

Loading…

Prossimi Passaggi (prossime 24 ore)

TLE

AggiornatoSource: CelesTrak SupGP

Epoca: Sep 14, 2026, 23:10 UTC

1 63286C 25053X   26257.96576389  .00026462  00000+0  95870-3 0  2573
2 63286  43.0001 253.0218 0001420 258.0472 286.5502 15.27557026    10

Traccia STARLINK-33613 in tempo reale con AllMySat

Download on the App Store